Regional Weather Roundup
Issued by NWS

Home | Current Version | Previous Version | Graphics & Text | Print | Product List | Glossary On
Versions: 1 2 3 4 5 6 7 8 9 10 11 12 13 14 15 16 17 18 19 20 21 22 23 24 25 26 27 28 29 30 31 32 33 34 35 36 37 38 39 40 41 42 43 44 45 46 47 48 49 50
000
ASUS45 KBOI 012210
RWRID

IDAHO REGIONAL WEATHER ROUNDUP
NATIONAL WEATHER SERVICE BOISE ID
400 PM MDT TUE SEP 01 2015

NOTE: "FAIR" INDICATES FEW OR NO CLOUDS BELOW 12000 FEET
WITH NO SIGNIFICANT WEATHER AND/OR OBSTRUCTIONS TO VISIBILITY

IDZ012-014-012300-
SOUTHWEST IDAHO


CITY           SKY/WX    TMP DP  RH WIND       PRES   REMARKS
BOISE          MOSUNNY   84  42  22 NW7       29.82F
CALDWELL         N/A     84  43  23 E5        29.82F
MOUNTAIN HOME  SUNNY     89  36  15 VRB3      29.80F
$$

IDZ016-017-012300-
SOUTHCENTRAL IDAHO


CITY           SKY/WX    TMP DP  RH WIND       PRES   REMARKS
BURLEY         MOSUNNY   86  35  16 VRB5      29.88F
JEROME         SUNNY     86  34  15 N3        29.88F
TWIN FALLS     SUNNY     89  34  14 N10       29.89F
$$

IDZ019>023-012300-
SOUTHEAST IDAHO


CITY           SKY/WX    TMP DP  RH WIND       PRES   REMARKS
IDAHO FALLS    SUNNY     85  28  12 SW17      29.94F
POCATELLO      SUNNY     88  31  13 W10G17    29.93F
REXBURG        SUNNY     84  31  14 SW16G23   29.95F
$$

IDZ006-010-011-018-031-032-012300-
CENTRAL IDAHO MOUNTAINS


CITY           SKY/WX    TMP DP  RH WIND       PRES   REMARKS
MCCALL         PTSUNNY   76  35  22 S16       29.93F
HAILEY         MOSUNNY   81  34  18 SW12G21   29.99F
STANLEY          N/A     77  26  15 MISG      30.02F
SALMON         SUNNY     84  39  20 NW7       29.78F
CHALLIS        SUNNY     86  25  11 SW16      29.87F
$$

IDZ002-004-006-007-026-012300-
NORTHERN IDAHO


CITY           SKY/WX    TMP DP  RH WIND       PRES   REMARKS
LEWISTON       SUNNY     80  39  23 W6        29.77F
LOWELL           N/A     84  52  33 S3        29.74F
COEUR D`ALENE  CLOUDY    73  45  35 S12G17    29.81F
MULLAN PASS    SUNNY     62  31  31 SW5       29.97F
$$



USA.gov is the U.S. government's official web portal to all federal, state and local government web resources and services.